Weather in Dubki

Russia / Yaroslavl Oblast     57°31′42″N   39°44′16″E
temp.,
°C
wind,
m/s
gust,
m/s
humid.,
%
clouds,
%
prec.,
mm/h
press.,
hPa
HPBL,
m
2 july, sat
sat200:00+11nnw22695 0.0 102321
03:00+9nnw227780 0.0 102320
06:00+13nnw257667 0.0 1023130
09:00+19nw465898 0.0 1022583
12:00+22nnw56450 0.0 10201345
15:00+23nnw464684 0.0 1019960
18:00+23nw365612 0.0 1017526
21:00+20w4966100 0.0 1016224
3 july, sun
sun300:00+17nw3684100 0.0 101599
03:00+14n34885 0.0 101652
06:00+16ne48855 0.0 1016242
09:00+20ne57640 0.0 1017682
12:00+22ne56520 0.0 10171275
15:00+24ne45470 0.0 10161481
18:00+24ene24550 0.0 10161019
21:00+18wsw016882 0.0 101611
4 july, mon
mon400:00+16wnw128229 0.0 101711
03:00+15nnw11860 0.0 101711
06:00+18n12796 0.0 101782
09:00+23nnw11624 0.0 1017495
12:00+26n13505 0.0 10161705
15:00+27ene134219 0.0 10152035
18:00+25se1159100 0.0 1015168
21:00+22ssw116238 0.0 101511
5 july, tue
tue500:00+18wsw117325 0.0 101511
03:00+20ssw2267100 0.0 101536
06:00+19wsw2277100 0.0 101558
09:00+24sw355965 0.0 1015460
12:00+27ssw454995 0.0 10151207
15:00+28s5746100 0.0 10141971
18:00+25s596686 0.1 1013437
21:00+19sw5119178 1.3 1013231
6 july, wed
wed600:00+18sw5109389 1.0 1013203
03:00+17ssw349492 1.0 101371
06:00+18ssw3591100 0.0 1013149
09:00+22sw3477100 0.0 1013334
12:00+21ssw258493 0.1 1013217
15:00+25ssw3569100 3.0 10121013
18:00+23wsw368484 2.6 1011436
21:00+19sw229186 4.6 101131